Flag for Cook Islands Weather past 2 weeks in Rarotonga, Cook Islands

Now
79 °F

Partly cloudy.


Feels Like: 83 °F
Forecast: 79 / 86 °F
Wind: 18 mph from North

Location: Rarotonga

Current Time: Feb 1, 2015 at 12:24:43 AM

Latest Report: Feb 1, 2015 at 12:00 AM


Visibility: N/A

Pressure: 29.77 "Hg

Humidity: 94%

Dew point: 77 °F

Location of RarotongaLocation

Historic Weather in Rarotonga — Graph

°F

Rarotonga temperature yesterday

Maximum temperature yesterday: 82 °F (at 10:00 AM)
Minimum temperature yesterday: 77 °F (at 12:00 AM)
Average temperature yesterday: 79 °F

Past Weeks' High & Low Weather Summary

 TemperatureHumidityPressure
High90 °F (Jan 24, 12:00 PM)100% (Jan 19, 6:00 PM)29.86 "Hg (Jan 19, 6:00 PM)
Low72 °F (Jan 22, 3:00 AM)19% (Jan 19, 1:00 PM)29.59 "Hg (Jan 21, 5:00 PM)
Average80 °F84%29.73 "Hg
* Reported Jan 16 11:00 PM — Jan 31 11:00 PM, Rarotonga, Weather by CustomWeather, © 2014

Note: Actual official high and low records may vary slightly from our data, if they occured in-between our weather recording intervals... More about our weather records

Advertising

Rarotonga weather history for previous 24 hours

 ConditionsComfort  
Time TempWeatherWind HumidityBarometerVisibility
11:00 PM
Jan 31
79 °FPartly cloudy.21 mph89%29.77 "HgN/A
10:00 PM79 °FPassing clouds.20 mph89%29.77 "HgN/A
9:00 PM79 °FScattered showers. Partly cloudy.18 mph89%29.77 "HgN/A
8:00 PM79 °FScattered showers. Partly cloudy.22 mph89%29.74 "HgN/A
7:00 PM79 °FBroken clouds.25 mph89%29.74 "HgN/A
6:00 PM79 °FBroken clouds.26 mph89%29.71 "HgN/A
5:00 PM79 °FBroken clouds.24 mph89%29.71 "HgN/A
4:00 PM79 °FScattered showers. Scattered clouds.20 mph89%29.71 "HgN/A
3:00 PM79 °FDrizzle. Broken clouds.20 mph89%29.74 "HgN/A
2:00 PM79 °FScattered clouds.21 mph94%29.77 "HgN/A
1:00 PM79 °FScattered showers. Scattered clouds.24 mph89%29.77 "HgN/A
12:00 PM82 °FScattered showers. Scattered clouds.17 mph84%29.77 "HgN/A
11:00 AM81 °FScattered clouds.20 mph84%29.77 "HgN/A
10:00 AM82 °FScattered clouds.16 mph74%29.74 "HgN/A
9:00 AM79 °FScattered clouds.20 mph74%29.77 "HgN/A
8:00 AM81 °FScattered showers. Broken clouds.13 mph89%29.74 "HgN/A
7:00 AM79 °FDrizzle. Broken clouds.13 mph94%29.74 "HgN/A
6:00 AM79 °FScattered showers. Mostly cloudy.10 mph89%29.71 "HgN/A
5:00 AM79 °FScattered showers. Mostly cloudy.15 mph84%29.71 "HgN/A
4:00 AM77 °FScattered showers. Mostly cloudy.9 mph89%29.71 "HgN/A
3:00 AM77 °FMostly cloudy.12 mph94%29.71 "HgN/A
2:00 AM77 °FDrizzle. Overcast.12 mph94%29.74 "HgN/A
1:00 AM77 °FPassing clouds.12 mph94%29.77 "HgN/A
12:00 AM77 °FSprinkles. Passing clouds.9 mph94%29.77 "HgN/A
Weather by CustomWeather, © 2014

See weather overviewHow to use our weather pages